星链-30294 (STARLINK-30294 )

导读 | 豆包AI

STARLINK-30294是美国太空探索技术公司SpaceX星链星座中的一员,于2023年8月17日发射升空,属于星链互联网卫星家族。该卫星依托一箭多星发射任务入轨,承担低轨道卫星互联网通信服务,为全球偏远、欠发达地区以及海上、空中移动场景提供宽带网络接入服务,推进星链星座全球覆盖组网进程。

基本信息
目录编号:
57651
目录名称:
STARLINK-30294
国际标识:
2023-122V
轨道中心:
EARTH
卫星名称:
星链-30294
卫星全名:
星链-30294 (STARLINK-30294 )
卫星状态:
在轨 (已飞行987 天)
发射日期:
2023-08-17 UTC
国别 :
美国 (US)
星等 :
--
轨道信息
数据来源 国际轨道数据
星历时间: 2026-04-29T18:49:06+0800
1天前
查看轨道信息
半长轴: 6861.218km
偏心率: 0.000127
轨道倾角: 43.001°
近地点辐角 267.271°
升交点赤经 154.516°
平近点角 92.799°
近地点: 482.209km
远地点: 483.953km
周期: 94.267分钟
每日圈数: 15.275696
详细信息
固有亮度:
5
最大亮度:
0.3
卫星平台:
Starlink v2.0 mini
覆盖范围:
全球
运营商:
太空探索技术公司
运营商所在国:
美国
制造商(研发单位):
太空探索技术公司
制造商所在国:
美国
使用方式:
暂无
卫星简介
星链(Starlink)计划是由太空探索技术公司(SpaceX)提出的一个巨型低轨卫星互联网星座项目,计划在2019年至2024年间在太空搭建由约1.2万颗卫星组成的“星链”网络,其中1584颗将部署在地球上空550千米处的近地轨道,并从2020年开始工作。该卫星仍在工作。
2D轨道图
3D轨道图
轨道高度分析图
轨道倾角分析图
轨道综合分析图
查看轨道综合分析图